THOR ABLESTAR DEB, 657

Orbit data source: Space-Track

THOR ABLESTAR DEB, 657 is space debris in LEO originally from a launch on Thu, 29 Jun 1961 UTC launched from the Air Force Eastern Test Range (AFETR). Debris objects in space refer to the collection of defunct objects orbiting the Earth. Examples of debris include non-operational satellites, rocket bodies, and fragments generated from explosions, collisions, or faulty payload assembly.

Loading next visibility...
Identifier
657, 1961-015HJ
Orbit
LEO
Country
Flag of USUS
Related business
Manufacturer
Unknown
Mission
Spacecraft
Bus & Motor
Unknown
Mass
Unknown
Launch date (UTC)
1961-06-29 (65 years ago)
Launch vehicle
Unknown
Launch site
Air Force Eastern Test Range (AFETR)
Object type
Payload
Rocket body
Debris
Shape & HBR
Unknown shape, 0.1 m
Radar Cross Section
Small (<0.1 m²)

Expand to show TLE details & history
Last TLE update: 12 hours ago

TLE from 12 hours ago
0 THOR ABLESTAR DEB
1 00657U 61015HJ  26140.96782733 -.00000210  00000-0 -30536-3 0  9994
2 00657  66.2484  58.8077 0336050  38.9174  42.5807 13.11867603101053
Epoch: 2026-05-20T23:13Z
TLE epoch observation values (Epoch: 2026-05-20T23:13:40.281Z)
Latitude
65.69769°
Longitude
-92.43317°
Altitude
1,042.574 km
Speed
7.425 km/s
True Right ascension
08h 58m 25s
True Declination
65° 34' 24"
Sunlit
Object was in daylight at epoch
Visualization orbit readout
Latitude
Unknown
Longitude
Unknown
Altitude
Unknown
Speed
Unknown
Apparent Right ascension
Unknown
Apparent Declination
Unknown
Sunlit
N/A
Visualization observer readout
Local Sidereal Time
20:34:31
Azimuth
Unknown
Elevation
Unknown
Doppler factor
Unknown
Orbital elements
Apogee altitude
1,469.606 km
Perigee altitude
959.308 km
Semi-major axis
7,592.594 km
Eccentricity
0.03361
Inclination
66.2484°
RAAN
58.8077°
Arg. of periapsis
38.9174°
True anomaly
45.26836°
Mean anomaly
42.5807°
Eccentric anomaly
43.91618°
Mean motion
3.28063 °/min
Orbital period
109.73 mins
BSTAR
-0.00030536
Loading maneuver chart data...
Computing Atmospheric mass density...
Loading historical data...
Loading historical data...
Loading historical data...
Loading historical data...
Loading historical data...
Loading historical data...
Loading historical data...

Documentation

Showing up to 5 results
|